Regional Weather Roundup
Issued by NWS Columbia, SC

Home | Current Version | Previous Version | Text Only | Print | Product List | Glossary On
Versions: 1 2 3 4 5 6 7 8 9 10 11 12 13 14 15 16 17 18 19 20 21 22 23 24 25 26 27 28 29 30 31 32 33 34 35 36 37 38 39 40 41 42 43 44 45 46 47 48 49 50
000
ASUS42 KCAE 081310
RWRCAE
REGIONAL WEATHER ROUNDUP
NATIONAL WEATHER SERVICE COLUMBIA SC
800 AM EST MON FEB 08 2016

NOTE: "FAIR" INDICATES FEW OR NO CLOUDS BELOW 12,000 FEET WITH NO
SIGNIFICANT WEATHER AND/OR OBSTRUCTIONS TO VISIBILITY.

NOT ALL STATIONS ARE QUALITY CONTROLLED BY THE NATIONAL
WEATHER SERVICE. USE DATA WITH CAUTION...ESPECIALLY
DEWPOINT OBSERVATIONS.

SCZ001>056-GAZ040-063>065-077-081400-
...UPSTATE SOUTH CAROLINA...

CITY           SKY/WX    TMP DP  RH WIND       PRES   REMARKS
ANDERSON       CLOUDY    35  27  72 S6        29.82R WCI  30
LIBERTY        CLOUDY    30  27  88 CALM      29.78F
SPARTANBURG    CLOUDY    34  23  64 SW6       29.79R WCI  29
CLEMSON        CLOUDY    39  23  52 VRB3      29.81S
GREENVILLE     CLOUDY    36  24  62 SW5       29.80R WCI  32
GREENWOOD      CLEAR     37  26  64 SW9       29.84F WCI  30
GREER          MOCLDY    36  26  67 SW6       29.78S WCI  31
ROCK HILL      CLEAR     29  25  85 SW6       29.81F WCI  23
CHESTER        MOSUNNY   32  27  80 SW5       29.82F WCI  27
LAURENS        MOSUNNY   32  27  80 SW8       29.81F WCI  25


...CENTRAL SOUTH CAROLINA...

CITY           SKY/WX    TMP DP  RH WIND       PRES   REMARKS
COLUMBIA APT   PTCLDY    31  25  78 CALM      29.86S
COLUMBIA OWENS CLEAR     32  29  88 CALM      29.87F
MCENTIRE ANGB  CLEAR     28  27  94 CALM      29.86F
ORANGEBURG     CLEAR     33  29  85 CALM      29.88F
SUMTER SHAW    CLEAR     31  28  88 S1        29.85R
NEWBERRY       SUNNY     32  28  86 S5        29.86F WCI  27
AIKEN          FAIR      34  27  75 SW5       29.89F WCI  30
BARNWELL       FAIR      34  32  93 CALM      29.89F
MANNING        FAIR      32  30  93 CALM      29.88F
CAMDEN         FAIR      28  28 100 CALM      29.86S
LANCASTER      SUNNY     30  28  93 CALM      29.84S
WINNSBORO      SUNNY     32  28  86 SW6       29.83F WCI  26


...EASTERN AND COASTAL SOUTH CAROLINA...

CITY           SKY/WX    TMP DP  RH WIND       PRES   REMARKS
MYRTLE BEACH   CLEAR     36  27  69 S6        29.92S WCI  31
N MYRTLE BCH   CLEAR     35  29  78 SW3       29.89S
CONWAY         FAIR      32  32 100 CALM      29.90S FOG
MARION         FAIR      32  30  93 CALM      29.88S
HARTSVILLE     FAIR      32  28  86 CALM      29.85S
FLORENCE       CLEAR     31  29  92 CALM      29.87S
DARLINGTON     CLEAR     32  25  74 CALM      29.87S
CHARLESTON APT PTCLDY    37  30  75 W7        29.91S WCI  32
MOUNT PLEASANT FAIR      36  34  93 W5        29.92S WCI  32
WALTERBORO     SUNNY     37  32  81 SW6       29.91F WCI  33
BEAUFORT       CLEAR     38  31  76 SW8       29.93S WCI  32


...EASTERN GEORGIA...

CITY           SKY/WX    TMP DP  RH WIND       PRES   REMARKS
AUGUSTA BUSH F CLEAR     34  27  75 CALM      29.88F
AUGUSTA DANIEL CLEAR     40  24  53 SW3       29.87F
THOMSON        CLEAR     36  30  80 SW3       29.90F
WASHINGTON     FAIR      39  32  75 CALM      29.84F
CLAXTON        FAIR      35  35 100 CALM      29.93F
SYLVANIA       SUNNY     36  32  86 CALM      29.92F
STATESBORO     CLEAR     42  27  54 CALM      29.92F
SAVANNAH       CLEAR     38  29  70 SW5       29.95F WCI  34


...SOUTHERN NORTH CAROLINA...

CITY           SKY/WX    TMP DP  RH WIND       PRES   REMARKS
CHARLOTTE      PTCLDY    32  24  72 SE7       29.81F WCI  26
MONROE         CLEAR     30  23  75 SW3       29.81S
WADESBORO      SUNNY     28  25  87 CALM      29.85R
ROCKINGHAM     SUNNY     31  26  81 CALM      29.85S
RUTHERFORDTON  CLOUDY    27  25  91 NW6       29.78R WCI  21
ASHEVILLE      CLOUDY    30  22  72 SE3       29.76R

$$



USA.gov is the U.S. government's official web portal to all federal, state and local government web resources and services.